User: anonymous   Login
Location: Unspecified
(0.0000°N, 0.0000°E)
Time: 06:03:17
(UTC+01:00)
Language:

Resurs 01 Rocket - Orbit

View from above orbital plane
View from above orbital plane
View from above satellite
View from above satellite

Ground track
Ground track

The orbit data is extracted from the following two-line orbital elements,

1 23343U 94074B   14332.10784384  .00000625  00000-0  97936-4 0  1800
2 23343 098.2246 338.9541 0007539 168.3969 235.6826 14.76297528 79286
Epoch (UTC): 28 November 2014 02:35:17
Eccentricity: 0.0007539
inclination: 98.2246°
perigee height: 636 km
apogee height: 646 km
right ascension of ascending node: 338.9541°
argument of perigee: 168.3969°
revolutions per day: 14.76297528
mean anomaly at epoch: 235.6826°
orbit number at epoch: 7928

The dashed part of the orbit path shows where the satellite is in the earth's shadow,  

DLR